RH
96 100 100 100 94 92 92 73 79 100 95 100 100 100 92 89 90 90 89 94 92 76 92 99 99 88 74 82 49 43 49 52 54 70 88 76 68 65 57 49 34 23 20 19 18
96 100 82 72 100 100 100 100 100 100 96 100 100 100 100 100 100 88 97 100 100 100 95 84 71 86 97 94 72 35 31 33 32 31 30 29 25 20 19 21 22 21 20 18 18
89 83 100 84 84 100 100 100 100 100 100 100 100 100 100 100 100 96 62 68 73 72 75 88 76 71 60 28 15 15 17 20 21 22 22 22 22 18 17 18 18 17 16 17 20
95 100 91 98 94 74 74 98 100 97 100 100 100 88 98 65 64 55 75 97 96 84 68 39 17 17 21 22 23 23 22 20 19 19 18 18 18 20 24 23 23 25 30 32 29
97 89 95 66 81 100 86 97 96 66 79 70 64 65 62 77 94 100 94 56 19 18 23 22 24 24 22 19 18 17 16 16 17 17 18 22 26 25 23 24 30 35 36 35 32
38 47 63 76 72 73 74 76 75 80 85 98 100 100 100 74 43 24 20 22 23 24 25 24 23 21 20 18 20 20 21 21 21 25 25 23 23 24 27 34 35 36 34 35 33
13 16 24 36 39 63 80 86 100 100 86 54 20 16 16 17 20 21 23 24 23 22 24 21 23 23 21 22 26 29 32 35 32 24 24 25 29 34 36 37 36 34 33 30 32
11 12 14 15 15 15 16 16 16 16 17 18 19 20 20 23 22 20 22 22 22 23 24 28 28 31 32 34 34 30 27 24 31 38 29 28 30 31 32 36 37 37 34 35 37
12 12 11 12 13 14 14 16 16 18 20 20 22 20 21 20 18 20 21 23 24 28 33 35 44 43 41 37 26 21 22 28 32 38 42 30 31 31 37 42 43 37 33 35 35
16 15 13 12 12 13 13 15 18 19 19 20 17 17 18 21 20 21 25 26 27 32 38 38 34 46 38 31 41 39 38 32 21 23 30 35 35 31 37 45 44 33 35 34 40
18 18 18 16 14 13 14 14 16 16 17 17 17 20 22 21 22 21 25 24 30 28 37 53 61 65 39 41 44 46 36 27 23 21 23 33 36 33 41 47 36 34 35 35 43
20 20 20 20 19 17 16 15 15 15 17 16 15 20 21 20 20 22 27 28 24 38 50 51 45 35 36 38 41 46 42 31 28 27 26 30 38 34 44 42 34 32 35 39 43
18 21 23 24 24 23 22 22 19 19 19 19 19 20 18 20 22 24 28 27 32 37 45 48 51 46 42 44 49 51 50 42 27 24 27 29 38 34 46 36 30 37 34 42 79
22 21 23 25 27 28 30 29 28 27 27 27 28 32 30 27 32 28 32 36 45 54 61 60 54 48 49 53 57 56 46 32 30 30 28 33 50 42 46 34 36 37 43 60 67
27 27 27 31 33 31 31 34 37 40 45 41 40 45 47 44 45 51 55 60 66 61 61 57 57 59 58 60 56 53 34 26 28 32 26 35 54 42 41 34 39 48 54 71 55
23 25 31 35 36 36 37 38 40 41 45 49 54 58 60 61 64 70 73 79 78 77 72 74 65 57 60 56 44 28 24 33 34 30 29 39 58 48 36 40 43 48 72 66 53
34 34 28 25 30 32 34 44 49 49 52 62 66 65 66 68 70 74 76 86 91 88 74 55 59 62 54 40 32 29 44 41 35 29 41 53 46 46 36 42 48 49 62 49 66
42 49 55 42 30 31 34 40 42 38 43 55 66 73 88 90 89 94 93 85 93 90 82 75 58 46 41 44 43 48 42 34 36 40 43 47 34 43 44 48 43 53 46 52 74
31 36 45 49 55 61 70 77 76 68 54 49 53 57 75 80 77 82 84 90 82 63 45 46 50 61 66 51 51 46 51 39 30 31 39 37 34 44 43 48 44 50 50 83 81
28 30 31 38 41 42 45 39 52 59 55 57 59 59 67 67 67 76 83 72 64 62 81 91 84 77 68 54 45 50 47 31 27 29 38 34 35 39 44 41 49 49 66 92 74
24 26 29 33 36 38 36 37 42 44 45 43 44 56 97 100 100 100 96 78 79 80 83 99 90 89 68 60 38 52 48 35 28 37 34 34 36 36 45 42 49 61 72 76 56
20 21 22 24 27 31 33 38 36 42 41 35 31 32 36 42 46 57 65 60 75 80 92 94 81 74 56 53 39 46 53 43 35 40 31 31 34 37 38 42 58 55 69 62 68
30 27 22 22 24 25 26 28 31 32 36 34 27 27 26 29 30 34 38 40 45 56 61 63 62 51 40 40 37 41 34 35 36 28 29 30 33 39 40 47 56 68 72 71 63
39 34 32 24 21 23 22 23 25 26 29 32 32 30 27 28 26 26 27 29 38 47 46 44 45 37 45 39 37 36 34 29 27 27 30 29 41 36 38 46 65 79 100 74 97
46 46 52 39 30 21 21 22 24 24 23 24 27 28 28 26 27 25 24 24 27 27 29 34 37 38 36 33 32 31 25 24 24 26 25 30 32 37 41 67 100 97 100 99 100
56 57 53 60 42 32 24 22 23 24 24 24 23 22 26 26 25 28 27 26 26 25 29 32 35 35 34 32 27 24 24 22 20 22 26 30 33 41 42 74 98 100 100 100 100
63 64 67 55 57 47 38 30 29 30 26 22 26 22 20 22 22 24 24 24 28 30 32 34 35 36 30 27 26 26 27 22 24 30 32 31 40 41 39 54 88 100 92 99 100
Wind_Speed
29 27 25 23 19 7 11 10 15 19 16 12 13 18 18 21 28 26 29 31 34 36 39 37 39 45 48 51 44 42 41 42 36 35 39 46 53 58 51 51 50 50 52 53 53
25 24 23 20 19 13 8 9 15 17 16 24 24 23 23 31 33 35 35 36 31 35 38 45 39 31 36 37 38 36 34 35 35 35 37 39 39 39 38 37 38 41 43 43 45
17 10 9 7 18 24 15 14 24 26 26 27 27 33 32 28 39 40 35 41 37 41 34 31 33 35 35 33 30 26 21 22 24 26 27 27 26 27 26 26 29 31 33 35 40
13 12 14 16 17 19 24 19 18 24 30 24 30 32 35 31 29 26 19 21 25 28 29 29 27 17 11 8 7 11 11 12 13 16 16 17 19 23 27 29 30 31 31 35 39
4 17 16 10 19 18 22 21 22 21 24 29 23 17 19 17 19 21 21 22 18 15 9 9 8 8 5 1 1 3 5 8 10 13 16 18 20 23 24 24 21 22 25 28 34
8 8 9 9 13 14 14 17 16 13 13 15 17 17 16 17 19 16 6 6 5 7 10 10 7 5 6 8 9 9 10 11 11 11 14 15 16 18 14 15 24 26 29 31 37
11 6 3 3 5 8 10 12 15 17 17 18 16 14 11 5 3 5 8 10 14 13 13 11 11 9 9 11 12 13 14 16 15 13 12 14 13 11 16 24 26 32 36 35 36
22 18 14 11 7 6 6 5 6 7 7 7 8 6 7 12 14 14 14 15 16 16 16 15 14 14 13 14 14 13 13 13 19 20 20 18 15 14 22 31 32 34 33 35 36
26 24 22 19 18 16 15 17 13 11 13 9 12 14 17 16 17 18 17 18 17 19 16 14 17 12 12 12 13 14 18 22 21 23 25 23 19 24 28 32 35 35 33 34 39
24 25 26 25 24 22 19 19 19 18 18 16 16 19 16 18 17 18 19 20 20 18 14 11 13 15 14 15 18 19 20 21 22 24 24 25 23 22 28 31 35 33 33 36 47
19 21 22 22 23 23 22 20 21 19 19 15 19 20 15 15 17 17 17 15 13 13 14 13 11 5 7 11 14 18 21 23 25 27 25 23 25 24 26 32 35 32 35 43 49
14 15 16 17 18 19 20 17 19 18 19 16 17 18 16 15 14 13 13 6 7 9 4 1 3 6 9 13 18 22 23 24 26 28 29 24 24 23 25 32 33 34 39 45 50
8 9 11 12 13 13 13 14 12 14 13 11 11 11 9 9 7 7 5 1 3 3 1 2 6 10 13 16 20 24 27 29 28 28 28 25 24 23 27 32 35 34 39 52 63
6 7 7 8 9 9 9 9 8 8 8 7 8 7 5 4 3 1 1 2 4 5 7 9 12 15 19 22 26 29 29 30 29 30 29 25 24 26 26 33 31 35 47 57 62
5 3 3 4 5 5 5 5 5 4 5 5 5 4 4 4 3 4 6 8 10 11 13 15 17 21 24 27 29 31 32 31 30 30 28 22 22 22 24 31 31 41 50 54 60
6 5 2 2 3 2 3 3 3 2 3 3 4 6 7 8 9 9 11 13 15 17 18 19 22 26 29 32 34 33 32 28 27 26 24 17 18 18 27 26 31 42 49 53 60
7 6 6 5 3 4 4 4 5 6 7 8 9 10 11 12 14 16 16 18 20 23 26 26 26 30 34 37 36 35 30 28 23 21 20 15 16 16 25 24 32 43 48 54 59
7 8 8 7 5 5 6 7 10 11 10 12 14 15 17 18 19 22 24 23 25 26 28 32 33 35 36 34 30 29 29 23 21 18 14 9 12 17 22 24 33 40 46 53 58
12 9 7 7 6 7 7 10 11 13 14 17 19 20 22 26 26 28 30 32 32 33 33 33 31 29 28 26 23 25 25 23 18 14 9 10 14 18 19 24 33 40 47 55 58
19 15 12 9 10 12 12 12 12 14 14 16 20 20 23 26 25 27 33 33 30 30 27 29 30 31 29 27 21 21 22 19 16 11 6 10 12 16 17 24 35 43 50 52 57
24 22 18 14 13 13 13 13 13 15 17 21 23 24 21 27 28 29 35 33 32 31 30 29 28 31 26 26 18 16 18 16 15 8 8 10 11 15 19 27 37 44 48 49 57
29 26 23 21 20 17 16 15 17 14 17 24 24 22 20 21 23 24 29 28 27 28 29 29 29 22 19 20 16 15 17 17 13 7 13 11 13 16 24 33 39 44 46 50 57
31 30 28 25 24 22 20 19 19 18 16 21 24 23 21 21 21 20 22 23 22 22 24 22 17 15 12 13 15 16 10 7 5 10 11 12 14 15 25 33 38 43 45 51 56
33 31 31 31 29 25 24 24 23 23 20 20 22 24 25 23 23 22 22 19 12 12 10 9 9 10 9 12 11 9 9 11 12 10 9 11 12 18 28 32 37 38 40 48 53
29 31 32 31 30 29 27 26 25 26 25 25 24 24 24 24 24 22 21 17 9 8 7 7 8 7 8 7 10 12 12 14 12 8 11 10 15 22 29 32 35 38 42 47 51
29 29 29 28 29 29 28 27 28 29 28 26 25 26 25 25 24 23 23 20 16 13 10 10 9 10 13 14 13 13 13 12 13 12 12 13 19 23 27 32 36 41 43 44 49
29 28 27 26 27 26 27 29 29 29 29 27 29 29 26 25 25 24 23 21 19 16 14 11 11 11 11 11 12 14 15 15 14 12 14 16 21 24 28 31 34 38 37 41 46
Wind_Direction
149 147 156 161 148 190 176 205 191 195 208 212 219 248 236 239 233 249 253 249 257 269 273 277 265 266 267 270 274 273 268 270 275 275 270 267 269 273 274 277 279 278 275 276 276
144 158 162 171 158 179 200 201 189 223 220 218 230 237 241 238 247 271 270 272 271 274 275 276 280 273 269 268 276 271 270 271 272 272 272 273 274 274 274 274 273 270 267 269 272
155 178 175 214 185 196 187 198 216 218 226 240 255 248 253 256 247 263 273 276 275 273 272 269 279 276 275 277 276 276 278 278 276 273 273 274 278 284 289 297 296 299 298 295 293
192 187 178 223 220 215 217 222 242 237 238 259 250 256 251 266 267 267 264 269 272 275 277 276 270 265 248 255 249 251 250 262 278 281 294 299 307 313 313 314 306 300 296 293 291
174 216 213 240 216 235 230 228 239 247 243 261 261 259 249 250 265 269 273 279 278 264 239 228 198 218 230 235 340 338 326 327 331 326 327 323 313 305 304 298 303 320 315 311 311
71 107 163 209 217 232 240 250 249 247 243 254 259 257 258 264 267 268 255 228 205 174 189 167 161 93 44 43 37 20 14 5 359 348 338 324 314 314 314 6 1 355 342 334 333
75 87 134 206 242 246 246 241 243 245 249 253 255 258 256 227 197 154 148 159 135 118 106 102 92 75 65 66 52 44 30 19 2 8 360 352 3 22 25 4 358 357 355 343 335
73 77 86 93 106 130 143 171 194 195 187 178 160 150 138 132 132 122 124 119 110 108 95 90 87 76 65 58 46 33 30 17 13 6 10 17 30 13 17 10 3 359 349 345 346
69 74 83 90 92 95 104 99 95 97 113 115 132 135 125 117 116 116 112 110 114 102 102 98 86 68 45 38 34 23 19 20 15 10 10 17 20 20 9 5 358 354 351 353 353
75 71 71 76 83 84 88 94 97 100 101 106 127 115 104 113 112 110 109 110 108 106 101 85 79 53 29 18 19 9 7 8 7 8 8 11 10 8 11 3 355 357 357 359 9
73 74 73 73 76 80 84 91 99 100 102 110 110 103 107 108 111 110 106 100 111 100 72 47 45 35 15 11 11 5 359 360 3 4 3 8 6 12 15 4 357 358 1 13 16
71 74 76 75 76 82 86 85 96 98 98 99 97 98 101 105 105 101 95 98 83 71 73 335 13 352 349 349 352 353 354 353 356 357 356 0 3 16 7 357 354 1 14 18 19
63 71 77 79 74 72 75 83 79 94 96 102 96 95 100 100 99 95 106 132 95 134 205 330 340 341 338 341 347 346 348 346 345 350 348 353 359 10 6 357 360 16 17 23 25
47 58 66 70 74 74 67 74 67 71 85 86 86 72 60 78 62 58 291 339 334 331 324 321 321 324 331 336 339 338 341 336 334 337 340 347 1 5 359 2 10 20 25 29 26
9 44 46 66 62 56 55 49 57 50 41 23 15 11 354 334 319 312 318 318 319 314 312 311 315 318 321 326 329 331 330 326 324 324 334 348 359 5 3 4 14 26 29 27 26
344 342 345 360 351 349 347 342 336 335 332 329 318 313 309 305 304 303 305 306 308 310 311 312 310 313 318 320 324 324 325 323 319 321 330 351 5 13 14 14 23 32 32 29 27
357 353 337 319 316 318 322 316 305 296 301 306 304 300 297 298 296 296 296 300 301 304 307 306 310 313 317 320 321 323 327 326 321 323 338 360 9 10 12 22 33 35 34 31 28
357 355 360 346 323 321 327 320 314 311 308 298 298 300 300 298 298 299 298 294 296 298 300 305 311 314 317 317 321 324 326 326 328 332 345 355 3 13 22 33 38 38 32 33 29
16 4 347 353 349 342 329 315 309 315 303 296 292 289 289 290 290 289 289 291 293 295 301 305 309 312 319 318 323 325 330 330 329 342 350 1 20 29 34 40 40 36 37 34 29
29 23 11 350 340 339 340 332 325 320 320 308 295 294 290 288 290 293 293 292 294 296 303 308 311 315 320 321 332 330 328 335 348 13 353 9 29 31 45 41 44 40 36 33 31
33 33 29 16 360 351 352 348 347 344 344 332 321 310 296 293 295 290 292 292 291 291 297 304 308 312 315 319 335 332 337 343 354 3 360 17 33 38 52 44 43 42 37 34 33
30 33 31 31 27 19 7 354 354 345 347 351 341 333 329 313 304 299 288 295 296 299 299 302 308 312 323 320 328 332 338 347 1 355 355 13 22 45 45 48 45 41 37 32 32
26 29 29 28 27 24 20 14 8 1 352 356 3 357 355 351 346 330 315 315 316 303 296 301 314 321 338 319 327 342 359 352 352 338 2 15 26 55 48 50 45 40 32 29 28
20 20 25 26 26 25 22 21 16 13 8 2 1 2 4 1 355 348 342 341 339 309 309 332 339 353 322 334 345 360 344 334 349 3 35 33 67 47 52 51 43 33 26 23 22
4 13 14 18 21 22 24 21 18 14 15 12 14 13 4 6 8 2 357 4 356 346 8 12 10 4 358 11 350 349 353 2 15 21 22 47 56 50 52 46 36 30 28 24 21
348 353 6 11 15 18 17 22 27 24 14 12 15 16 12 10 9 6 13 16 10 15 33 37 34 11 359 2 21 21 14 9 12 17 27 50 57 52 49 43 34 31 26 22 19
334 338 344 360 8 12 13 10 9 12 19 24 21 14 13 17 15 15 14 16 16 12 14 11 8 8 17 29 16 3 20 21 40 53 68 62 57 54 47 39 30 27 22 22 18